Starlink 30502

operational
NORAD ID: 57973 Int'l Des: 2023-151 Owner: SPXS Country: US Constellation: starlink
LEOCIRCULAR

Starlink 30502について

説明を読み込み中...

リアルタイム位置

3D地球を読み込み中...

次回通過

高度履歴

Altitude vs Time

uPlot chart will show altitude changes over time

軌道要素

1 57973U 23151K 25302.48338161 .00000401 00000-0 44778-4 0 9998
2 57973 43.0062 331.9849 0001539 284.3044 75.7627 15.02539474115997
Epoch: Oct 29, 2025 • Age: 39 hours

現在のステータス

高度 559.2 km
速度 7.58 km/s
衛星直下点 19.02°N, 43.49°E
打ち上げ日 Sep 30, 2023
運用期間 2 years
タイプ internet

技術仕様

分類 Payload
質量 730.00 kg
乾燥質量 700.00 kg
総質量 730.00 kg
長さ 0.30 m
直径 4.10 m
スパン 29.00 m
形状 Box + pan
製造者 SPXS
バスタイプ Starlink V2M
フェーズステータス In Orbit
所有者/国 SPXS/US

大規模コンステレーション

Loading constellations...